map of FOR home
FOR - Airport
Location
City:  Fortaleza, Ceará, Brazil
Name:Pinto Martins International Airport
ICAO:SBFZ
IATA:FOR

Details
Type:Airport (Aerodrome, Airfield)
Use:Public/Civil, Military, International (customs port of entry)
Latitude:3°46'35"S (-3.776282)
Longitude:38°31'57"W (-38.532555)
Datum:WGS 1984
Elevation:82 ft (25 m)
Variation:21.16°W (WMM2015 magnetic declination)
0.04° annual change
Runways:1
Longest:8350 × 148 ft (2545 × 45 m), paved

Time
Time Zone:UTC-3
Local Time:

Weather
METAR:SBFZ 230200Z 09009KT 9999 BKN017 26/23 Q1013
TAF:SBFZ 222200Z 2300/2324 08007KT 8000 SCT017 TN26/2306Z TX30/2315Z PROB30
TEMPO 2305/2311 6000 SHRA BKN020
BECMG 2310/2312 09014KT BKN020
BECMG 2314/2315 SCT025
RMK PCH

Related Locations
Nearby:
Farthest:ZRM: 12002 mi / 19316 km
Sarmi [Orai Airport], PA, ID

Find:

   beyond  
but within

Other Information
Maps:
NOTAMs:
Links:
Sources:

  
flag of Brazil
flag of Ceará
flag of Fortaleza
  

Sectional Chart

Flight Planning
at skyvector.com

Satellite Image

Google Maps Satellite view

 

Copyright © 2004-2017 Karl L. Swartz. All rights reserved.
The Great Circle Mapper name and logo are trademarks of the Great Circle Mapper.
All other trademarks mentioned herein belong to their respective owners.
Please see credits for attibutions and further copyright information.

  Follow gcmap on Facebook Follow gcmap on Twitter Follow gcmap on Google+ GCmap on LinkedIn

hCard Microformat

Geo Microformat